EWG14PJ EDDH-LEPA

Flight info

Callsign EWG14PJ
Flight time N/A
Altitude 34000
Route HABFU1C/05 HABFU Y348 DOMEG DCT LIRSU DCT LIMGO/N0440F350 N852 SUTAL DCT GTQ DCT POGOL DCT LASAT DCT MOROK DCT GILIR DCT GEVEA DCT INCUS DCT BALSI DCT RETNO DCT TUPOX DCT MTG DCT DIVKO DCT VATIR N852 PIVUS DCT BODEQ N852 VERSO DCT LUNIK
Aircraft A21N/M-SDE2E3FGHIRWXY/LB1

Departure

Time 2026-04-20 17:48
Airport Hamburg Helmut Schmidt Airport (EDDH)

Arrival

Time N/A
Airport Palma de Mallorca Airport (LEPA)
Time Latitude Longitude Altitude Speed Heading
2026-04-20 17:17 53.62891 10.00216 46 ft 0 kts 121°
2026-04-20 17:36 53.62891 10.00215 48 ft 1 kts 121°
2026-04-20 17:37 53.62899 10.00193 24 ft 4 kts 125°
2026-04-20 17:37 53.62915 10.00157 50 ft 4 kts 133°
2026-04-20 17:37 53.62935 10.00126 48 ft 4 kts 143°
2026-04-20 17:37 53.62958 10.00103 48 ft 4 kts 160°
2026-04-20 17:38 53.62982 10.00096 48 ft 4 kts 199°
2026-04-20 17:38 53.62991 10.00102 48 ft 0 kts 214°
2026-04-20 17:40 53.62986 10.00097 48 ft 3 kts 214°
2026-04-20 17:40 53.62954 10.00059 48 ft 9 kts 216°
2026-04-20 17:40 53.62891 10.00037 48 ft 7 kts 176°
2026-04-20 17:41 53.62847 10.00004 46 ft 4 kts 214°
2026-04-20 17:41 53.62830 9.99985 48 ft 3 kts 211°
2026-04-20 17:41 53.62824 9.99980 48 ft 0 kts 211°
2026-04-20 17:42 53.62812 9.99968 48 ft 6 kts 210°
2026-04-20 17:42 53.62744 9.99906 46 ft 17 kts 207°
2026-04-20 17:43 53.62640 9.99759 47 ft 22 kts 251°
2026-04-20 17:43 53.62607 9.99491 43 ft 24 kts 260°
2026-04-20 17:43 53.62575 9.99201 45 ft 26 kts 259°
2026-04-20 17:43 53.62540 9.98892 47 ft 28 kts 259°
2026-04-20 17:44 53.62503 9.98565 47 ft 29 kts 259°
2026-04-20 17:44 53.62461 9.98222 44 ft 31 kts 253°
2026-04-20 17:44 53.62355 9.97937 47 ft 27 kts 230°
2026-04-20 17:44 53.62250 9.97725 47 ft 17 kts 229°
2026-04-20 17:45 53.62189 9.97598 47 ft 11 kts 236°
2026-04-20 17:45 53.62184 9.97465 46 ft 12 kts 289°
2026-04-20 17:45 53.62198 9.97427 43 ft 0 kts 306°
2026-04-20 17:46 53.62200 9.97423 43 ft 3 kts 307°
2026-04-20 17:46 53.62240 9.97372 42 ft 12 kts 331°
2026-04-20 17:47 53.62317 9.97364 38 ft 9 kts 41°
2026-04-20 17:47 53.62327 9.97384 40 ft 0 kts 50°
2026-04-20 17:47 53.62327 9.97385 40 ft 1 kts 50°
2026-04-20 17:48 53.62415 9.97562 40 ft 55 kts 50°
2026-04-20 17:48 53.62815 9.98373 44 ft 122 kts 50°
2026-04-20 17:48 53.63475 9.99702 92 ft 169 kts 50°
2026-04-20 17:48 53.64241 10.01228 792 ft 171 kts 50°
2026-04-20 17:49 53.64988 10.02734 1742 ft 168 kts 51°
2026-04-20 17:49 53.65733 10.04246 2556 ft 170 kts 52°
2026-04-20 17:49 53.66497 10.05841 3187 ft 179 kts 53°
2026-04-20 17:49 53.67310 10.07555 3647 ft 196 kts 52°
2026-04-20 17:50 53.68226 10.09314 4279 ft 202 kts 40°
2026-04-20 17:50 53.69496 10.10315 4974 ft 210 kts 12°
2026-04-20 17:50 53.70968 10.10050 5656 ft 221 kts 341°
2026-04-20 17:50 53.72199 10.08416 6313 ft 234 kts 307°
2026-04-20 17:51 53.72992 10.05933 6808 ft 248 kts 299°
2026-04-20 17:51 53.73790 10.03196 7077 ft 271 kts 298°
2026-04-20 17:51 53.74642 10.00218 7504 ft 288 kts 293°
2026-04-20 17:51 53.74968 9.96907 8251 ft 295 kts 265°
2026-04-20 17:52 53.74453 9.93534 9036 ft 299 kts 248°
2026-04-20 17:52 53.73620 9.90279 9831 ft 303 kts 244°
2026-04-20 17:52 53.72723 9.87012 10546 ft 310 kts 244°
2026-04-20 17:52 53.71799 9.83598 10832 ft 331 kts 245°
2026-04-20 17:53 53.70838 9.79929 11075 ft 351 kts 246°
2026-04-20 17:53 53.69871 9.76155 11652 ft 357 kts 246°
2026-04-20 17:53 53.68888 9.72281 12367 ft 360 kts 246°
2026-04-20 17:53 53.67894 9.68363 13057 ft 364 kts 246°
2026-04-20 17:54 53.66890 9.64413 13757 ft 367 kts 247°
2026-04-20 17:54 53.65776 9.60522 14372 ft 371 kts 236°
2026-04-20 17:54 53.64088 9.57235 14988 ft 372 kts 218°
2026-04-20 17:54 53.61913 9.54869 15586 ft 373 kts 206°
2026-04-20 17:55 53.59613 9.52787 16198 ft 376 kts 206°
2026-04-20 17:55 53.57294 9.50679 16770 ft 380 kts 206°
2026-04-20 17:55 53.54963 9.48553 17376 ft 382 kts 207°
2026-04-20 17:55 53.52641 9.46431 17935 ft 386 kts 207°
2026-04-20 17:56 53.50269 9.44262 18499 ft 389 kts 207°
2026-04-20 17:56 53.47885 9.42084 18984 ft 392 kts 207°
2026-04-20 17:56 53.45474 9.39883 19502 ft 394 kts 207°
2026-04-20 17:56 53.43076 9.37701 19984 ft 397 kts 207°
2026-04-20 17:57 53.40639 9.35485 20456 ft 400 kts 207°
2026-04-20 17:57 53.38174 9.33247 20926 ft 403 kts 207°
2026-04-20 17:57 53.35693 9.31000 21404 ft 406 kts 207°
2026-04-20 17:57 53.33144 9.28938 21868 ft 408 kts 200°
2026-04-20 17:58 53.30441 9.27465 22328 ft 409 kts 192°
2026-04-20 17:58 53.27629 9.26555 22749 ft 412 kts 188°
2026-04-20 17:58 53.24820 9.25740 23197 ft 415 kts 188°
2026-04-20 17:58 53.21963 9.24894 23651 ft 418 kts 188°
2026-04-20 17:59 53.19091 9.24038 24016 ft 421 kts 189°
2026-04-20 17:59 53.16229 9.22866 24245 ft 425 kts 201°
2026-04-20 17:59 53.13619 9.20532 24662 ft 426 kts 214°
2026-04-20 17:59 53.11226 9.17731 25019 ft 428 kts 215°
2026-04-20 18:00 53.08800 9.14836 25403 ft 430 kts 216°
2026-04-20 18:00 53.06355 9.11922 25754 ft 432 kts 215°
2026-04-20 18:00 53.03904 9.09017 26106 ft 434 kts 215°
2026-04-20 18:00 53.01429 9.06102 26459 ft 436 kts 215°
2026-04-20 18:01 52.98947 9.03190 26794 ft 437 kts 215°
2026-04-20 18:01 52.96452 9.00271 27134 ft 439 kts 215°
2026-04-20 18:01 52.93978 8.97383 27438 ft 441 kts 214°
2026-04-20 18:01 52.91458 8.94445 27751 ft 443 kts 214°
2026-04-20 18:02 52.88928 8.91500 28067 ft 444 kts 214°
2026-04-20 18:02 52.86390 8.88550 28357 ft 446 kts 214°
2026-04-20 18:02 52.83846 8.85596 28657 ft 447 kts 214°
2026-04-20 18:02 52.81292 8.82636 28956 ft 448 kts 214°
2026-04-20 18:03 52.78730 8.79670 29240 ft 449 kts 214°
2026-04-20 18:03 52.76198 8.76744 29508 ft 450 kts 214°
2026-04-20 18:03 52.73616 8.73764 29776 ft 451 kts 214°
2026-04-20 18:03 52.71033 8.70787 30049 ft 452 kts 214°
2026-04-20 18:04 52.68453 8.67818 30302 ft 453 kts 214°
2026-04-20 18:04 52.65859 8.64838 30506 ft 455 kts 214°
2026-04-20 18:04 52.63258 8.61854 30715 ft 456 kts 214°
2026-04-20 18:04 52.60676 8.58897 30928 ft 457 kts 214°
2026-04-20 18:05 52.55423 8.52892 31379 ft 460 kts 214°
2026-04-20 18:05 52.52812 8.49914 31643 ft 459 kts 214°
2026-04-20 18:05 52.50182 8.46920 31888 ft 459 kts 214°
2026-04-20 18:06 52.47548 8.43925 32155 ft 459 kts 214°
2026-04-20 18:06 52.44924 8.40948 32415 ft 459 kts 214°
2026-04-20 18:06 52.42295 8.37969 32652 ft 459 kts 214°
2026-04-20 18:06 52.39664 8.34993 32883 ft 459 kts 214°
2026-04-20 18:07 52.37034 8.32022 33112 ft 459 kts 214°
2026-04-20 18:07 52.34400 8.29051 33326 ft 460 kts 214°
2026-04-20 18:07 52.31798 8.26120 33539 ft 460 kts 214°
2026-04-20 18:07 52.29162 8.23155 33755 ft 459 kts 214°
2026-04-20 18:08 52.26522 8.20189 33979 ft 459 kts 215°
2026-04-20 18:08 52.23883 8.17229 34184 ft 459 kts 215°
2026-04-20 18:08 52.18656 8.11377 34201 ft 457 kts 215°
2026-04-20 18:09 52.13396 8.05503 34201 ft 457 kts 215°
2026-04-20 18:09 52.08134 7.99645 34203 ft 457 kts 215°
2026-04-20 18:10 52.02885 7.93820 34205 ft 456 kts 215°
2026-04-20 18:10 51.97677 7.88055 34204 ft 455 kts 215°
2026-04-20 18:11 51.92439 7.82274 34201 ft 455 kts 215°
2026-04-20 18:11 51.87280 7.76597 34195 ft 454 kts 215°
2026-04-20 18:12 51.82050 7.70856 34187 ft 453 kts 215°
2026-04-20 18:12 51.76824 7.65136 34178 ft 453 kts 216°
2026-04-20 18:13 51.71559 7.59651 34172 ft 453 kts 212°
2026-04-20 18:13 51.65960 7.54889 34171 ft 455 kts 206°
2026-04-20 18:14 51.60234 7.50517 34167 ft 455 kts 207°
2026-04-20 18:14 51.54524 7.46103 34171 ft 455 kts 207°
2026-04-20 18:15 51.48841 7.41744 34172 ft 455 kts 207°
2026-04-20 18:15 51.43105 7.37369 34174 ft 456 kts 207°
2026-04-20 18:16 51.37357 7.32997 34180 ft 456 kts 207°
2026-04-20 18:16 51.31645 7.28664 34181 ft 457 kts 207°
2026-04-20 18:17 51.25876 7.24301 34179 ft 458 kts 208°
2026-04-20 18:17 51.20399 7.20169 34184 ft 458 kts 208°
2026-04-20 18:18 51.14665 7.15856 34177 ft 458 kts 208°
2026-04-20 18:18 51.08891 7.11523 34168 ft 459 kts 208°
2026-04-20 18:19 51.03115 7.07201 34170 ft 459 kts 208°
2026-04-20 18:19 50.97355 7.02903 34165 ft 459 kts 208°
2026-04-20 18:20 50.91572 6.98601 34165 ft 458 kts 208°
2026-04-20 18:20 50.85787 6.94308 34162 ft 458 kts 208°
2026-04-20 18:21 50.80047 6.90060 34160 ft 457 kts 208°
2026-04-20 18:21 50.74274 6.85800 34158 ft 457 kts 208°
2026-04-20 18:22 50.68512 6.81559 34157 ft 456 kts 209°
2026-04-20 18:22 50.62782 6.77353 34153 ft 456 kts 209°
2026-04-20 18:23 50.57987 6.73843 34151 ft 456 kts 209°
2026-04-20 18:23 50.51289 6.68952 34153 ft 455 kts 209°
2026-04-20 18:24 50.46497 6.65463 34149 ft 455 kts 210°
2026-04-20 18:24 50.40761 6.61296 34146 ft 454 kts 210°
2026-04-20 18:25 50.35017 6.57135 34147 ft 453 kts 210°
2026-04-20 18:25 50.29288 6.52995 34140 ft 453 kts 210°
2026-04-20 18:26 50.23580 6.48883 34138 ft 452 kts 210°
2026-04-20 18:26 50.17660 6.45360 34133 ft 458 kts 202°
2026-04-20 18:27 50.11455 6.43087 34129 ft 462 kts 197°
2026-04-20 18:27 50.05153 6.41118 34126 ft 461 kts 198°
2026-04-20 18:28 49.99164 6.38063 34323 ft 445 kts 212°
2026-04-20 18:28 49.96417 6.35982 34546 ft 443 kts 213°
2026-04-20 18:28 49.93643 6.33869 34769 ft 441 kts 213°
2026-04-20 18:29 49.90887 6.31776 35008 ft 439 kts 213°
2026-04-20 18:29 49.88140 6.29692 35132 ft 440 kts 213°
2026-04-20 18:29 49.82618 6.25501 35132 ft 447 kts 213°
2026-04-20 18:30 49.77026 6.21275 35131 ft 445 kts 213°
2026-04-20 18:30 49.71463 6.17094 35128 ft 445 kts 213°
2026-04-20 18:31 49.65922 6.12955 35127 ft 444 kts 213°
2026-04-20 18:31 49.60255 6.09074 35122 ft 451 kts 202°
2026-04-20 18:32 49.57129 6.08190 35114 ft 462 kts 190°
2026-04-20 18:32 49.53915 6.08325 35106 ft 472 kts 178°
2026-04-20 18:32 49.50678 6.09506 35102 ft 482 kts 165°
2026-04-20 18:32 49.47618 6.11706 35096 ft 490 kts 152°
2026-04-20 18:33 49.44866 6.14837 35095 ft 496 kts 141°
2026-04-20 18:33 49.42364 6.18445 35092 ft 497 kts 139°
2026-04-20 18:33 49.37216 6.25587 35095 ft 496 kts 143°
2026-04-20 18:34 49.31882 6.32204 35103 ft 496 kts 146°
2026-04-20 18:34 49.26416 6.38733 35113 ft 497 kts 146°
2026-04-20 18:35 49.20960 6.45218 35129 ft 498 kts 146°
2026-04-20 18:35 49.15477 6.51729 35129 ft 499 kts 146°
2026-04-20 18:36 49.10017 6.58199 35136 ft 500 kts 146°
2026-04-20 18:36 49.04502 6.64716 35139 ft 500 kts 146°
2026-04-20 18:37 48.98586 6.70038 35138 ft 487 kts 167°
2026-04-20 18:37 48.95383 6.71261 35135 ft 476 kts 179°
2026-04-20 18:37 48.92098 6.71487 35128 ft 466 kts 189°
2026-04-20 18:38 48.85633 6.71117 35120 ft 467 kts 188°
2026-04-20 18:38 48.79121 6.70833 35119 ft 467 kts 188°
2026-04-20 18:39 48.72633 6.70580 35115 ft 467 kts 188°
2026-04-20 18:39 48.66109 6.70331 35110 ft 468 kts 188°
2026-04-20 18:40 48.59641 6.70084 35108 ft 468 kts 188°
2026-04-20 18:40 48.53095 6.69833 35109 ft 468 kts 187°
2026-04-20 18:41 48.46610 6.69585 35104 ft 469 kts 187°
2026-04-20 18:41 48.40060 6.69334 35098 ft 469 kts 187°
2026-04-20 18:42 48.33570 6.69084 35102 ft 469 kts 187°
2026-04-20 18:42 48.27011 6.68833 35102 ft 469 kts 187°
2026-04-20 18:43 48.20480 6.68582 35097 ft 470 kts 187°
2026-04-20 18:43 48.13971 6.68333 35094 ft 470 kts 187°
2026-04-20 18:44 48.07425 6.68084 35095 ft 470 kts 187°
2026-04-20 18:44 48.00882 6.67837 35090 ft 469 kts 187°
2026-04-20 18:45 47.94382 6.67590 35085 ft 469 kts 187°
2026-04-20 18:45 47.87822 6.67344 35085 ft 469 kts 187°
2026-04-20 18:46 47.81324 6.67100 35085 ft 468 kts 186°
2026-04-20 18:46 47.74808 6.66854 35088 ft 467 kts 186°
2026-04-20 18:47 47.68301 6.66611 35059 ft 467 kts 186°
2026-04-20 18:47 47.61815 6.66370 35063 ft 466 kts 186°
2026-04-20 18:48 47.55326 6.66130 35051 ft 466 kts 186°
2026-04-20 18:48 47.48833 6.65890 35044 ft 465 kts 186°
2026-04-20 18:49 47.42459 6.65239 35038 ft 456 kts 199°
2026-04-20 18:49 47.39466 6.63848 35039 ft 447 kts 210°
2026-04-20 18:49 47.36752 6.61695 35042 ft 437 kts 220°
2026-04-20 18:50 47.32107 6.56042 35037 ft 432 kts 226°
2026-04-20 18:50 47.27552 6.50326 35037 ft 432 kts 226°
2026-04-20 18:51 47.22969 6.44601 35044 ft 432 kts 226°
2026-04-20 18:51 47.18379 6.38879 35054 ft 432 kts 226°
2026-04-20 18:52 47.13808 6.33195 35062 ft 432 kts 226°
2026-04-20 18:52 47.09143 6.27595 35068 ft 437 kts 220°
2026-04-20 18:53 47.03525 6.23872 35065 ft 453 kts 200°
2026-04-20 18:53 46.97170 6.22706 35053 ft 461 kts 191°
2026-04-20 18:54 46.90811 6.21870 35047 ft 461 kts 192°
2026-04-20 18:54 46.84428 6.21016 35037 ft 460 kts 192°
2026-04-20 18:55 46.78037 6.20162 35043 ft 460 kts 192°
2026-04-20 18:55 46.71658 6.19314 35023 ft 459 kts 192°
2026-04-20 18:56 46.65324 6.18473 35030 ft 460 kts 192°
2026-04-20 18:56 46.58936 6.17627 35018 ft 459 kts 192°
2026-04-20 18:57 46.52569 6.16786 35005 ft 460 kts 192°
2026-04-20 18:57 46.46236 6.15952 35009 ft 459 kts 192°
2026-04-20 18:58 46.39857 6.15114 35004 ft 459 kts 192°
2026-04-20 18:58 46.33489 6.14279 35003 ft 459 kts 192°
2026-04-20 18:59 46.27111 6.13446 35010 ft 460 kts 192°
2026-04-20 18:59 46.20822 6.12224 35019 ft 457 kts 196°
2026-04-20 19:00 46.14538 6.10805 35021 ft 458 kts 196°
2026-04-20 19:00 46.08228 6.09399 35027 ft 459 kts 195°
2026-04-20 19:01 46.01905 6.07998 35012 ft 459 kts 195°
2026-04-20 19:01 45.95582 6.06602 35018 ft 460 kts 195°
2026-04-20 19:02 45.89294 6.05216 35015 ft 459 kts 195°
2026-04-20 19:02 45.82976 6.03825 35017 ft 458 kts 195°
2026-04-20 19:03 45.76675 6.02433 34989 ft 458 kts 195°
2026-04-20 19:03 45.70355 6.01037 34981 ft 458 kts 195°
2026-04-20 19:04 45.64112 5.99667 34979 ft 456 kts 196°
2026-04-20 19:04 45.57833 5.98288 34976 ft 455 kts 196°
2026-04-20 19:05 45.51616 5.96927 34976 ft 454 kts 195°
2026-04-20 19:05 45.45403 5.95376 34965 ft 449 kts 199°
2026-04-20 19:06 45.39356 5.93463 34975 ft 447 kts 199°
2026-04-20 19:06 45.33260 5.91554 34966 ft 447 kts 199°
2026-04-20 19:07 45.27217 5.89669 34958 ft 445 kts 199°
2026-04-20 19:07 45.21153 5.87785 34969 ft 446 kts 199°
2026-04-20 19:08 45.12037 5.84958 34970 ft 447 kts 199°
2026-04-20 19:08 45.09089 5.84056 35053 ft 420 kts 199°
2026-04-20 19:09 45.06390 5.83255 34971 ft 370 kts 200°
2026-04-20 19:09 45.04018 5.82555 34970 ft 327 kts 201°
2026-04-20 19:09 45.02580 5.82121 34967 ft 310 kts 202°
2026-04-20 19:09 44.99852 5.81266 34973 ft 295 kts 203°
2026-04-20 19:10 44.98536 5.80848 34969 ft 289 kts 203°
2026-04-20 19:10 44.96596 5.80236 34955 ft 281 kts 203°
2026-04-20 19:10 44.94638 5.79607 34215 ft 299 kts 203°
2026-04-20 19:10 44.92543 5.78928 32986 ft 315 kts 202°
2026-04-20 19:11 44.90343 5.78232 31131 ft 330 kts 201°
2026-04-20 19:11 44.88065 5.77499 28920 ft 347 kts 201°
2026-04-20 19:11 44.85681 5.76649 26592 ft 355 kts 202°
2026-04-20 19:11 44.83306 5.75642 24418 ft 356 kts 205°
2026-04-20 19:12 44.80997 5.74416 22162 ft 351 kts 209°
2026-04-20 19:12 44.78853 5.72948 19967 ft 341 kts 215°
2026-04-20 19:12 44.76893 5.71171 17910 ft 329 kts 223°
2026-04-20 19:12 44.75214 5.69072 15796 ft 316 kts 231°
2026-04-20 19:13 44.73909 5.66677 13867 ft 302 kts 242°
2026-04-20 19:13 44.73063 5.64037 11905 ft 291 kts 255°
2026-04-20 19:13 44.72764 5.61279 10127 ft 282 kts 271°
2026-04-20 19:13 44.73079 5.58608 8335 ft 273 kts 289°
2026-04-20 19:14 44.74001 5.56355 6708 ft 267 kts 311°
2026-04-20 19:14 44.75454 5.54812 5096 ft 260 kts 335°
2026-04-20 19:14 44.76347 5.54398 4980 ft 6 kts 347°
2026-04-20 19:14 44.76348 5.54398 4981 ft 0 kts 347°